Location: Newark
(47.5833°N, 8.1500°E)
Time: 20:56:10
(UTC+00:00)

Vanguard 2 Rocket - Pass Details

Date: 02 November 2020
Orbit: 553 x 3326 km, 32.9° (Epoch: 04 December)

Event Time Altitude Azimuth Distance (km) Brightness Sun altitude
Rises 17:58:25 0° 235° (SW) 2,745 10.3 -19.0°
Reaches altitude 10° 18:02:08 10° 198° (SSW) 1,831 8.7 -19.6°
Maximum altitude 18:03:22 11° 179° (S) 1,784 8.4 -19.8°
Enters shadow 18:04:29 10° 163° (SSE) 1,884 8.4 -20.0°
